Location: Newark
(45.9456°N, 15.4064°E)
Time: 07:59:00
(UTC+00:00)

Vanguard 1 Rocket - Visible Passes

Search period start: 21 January 2020 00:00
Search period end: 31 January 2020 00:00
Orbit: 650 x 4226 km, 34.3° (Epoch: 20 January)

Date Brightness Start Highest point End Pass type
(mag) Time Alt. Az. Time Alt. Az. Time Alt. Az.
21 Jan 12.1 17:10:49 10° W 17:25:43 21° SW 17:41:51 10° S visible
22 Jan 12.1 15:55:48 10° W 16:12:28 30° SW 16:32:32 10° SSE visible
23 Jan 12.3 17:15:59 10° WSW 17:27:26 16° SW 17:39:48 10° SSW visible
24 Jan 12.2 15:59:33 10° W 16:14:21 24° SW 16:32:13 10° S visible
25 Jan 12.5 17:25:08 10° WSW 17:29:14 11° SW 17:33:30 10° SW visible
26 Jan 12.4 16:04:02 10° WSW 16:16:19 19° SW 16:30:54 10° S visible
28 Jan 12.6 16:10:12 10° WSW 16:18:22 13° SW 16:27:35 10° SSW visible
